When you browse on this site, cookies collect data to enhance your experience and personalize the content and advertising you see.
Visit our Privacy Policy to learn more. By continuing to use the site, you agree to this use of cookies and data.
  • In United Kingdom
  • List of Countries
  • For 7 days
  • Water Temperature
  • Weather Map
  • Weather Widgets
  • user-avatar
    Login

    Hourly Weather Blagoevgrad

    Today, 15 September, Sunday

    Time Temperature Precipitation Wind Pressure Humidity
    00:00 +18°C° 0 mm 1 mps 727 mmHg 65%
    01:00 +16°C° 0 mm 1 mps 727 mmHg 68%
    02:00 +16°C° 0 mm 1 mps 727 mmHg 72%
    03:00 +16°C° 0 mm 1 mps 727 mmHg 73%
    04:00 +15°C° 0 mm 1 mps 727 mmHg 75%
    05:00 +15°C° 0 mm 1 mps 727 mmHg 76%
    06:00 +18°C° 0 mm 1 mps 728 mmHg 71%
    07:00 +19°C° 0 mm 1 mps 728 mmHg 66%
    08:00 +21°C° 0 mm 1 mps 728 mmHg 59%
    09:00 +23°C° 0 mm 1 mps 728 mmHg 53%
    10:00 +25°C° 0 mm 1 mps 728 mmHg 46%
    11:00 +27°C° 0 mm 1 mps 728 mmHg 40%
    12:00 +28°C° 0 mm 1 mps 728 mmHg 37%
    13:00 +29°C° 0 mm 1 mps 727 mmHg 34%
    14:00 +29°C° 0 mm 2 mps 727 mmHg 32%
    15:00 +29°C° 0 mm 2 mps 727 mmHg 33%
    16:00 +29°C° 0 mm 2 mps 726 mmHg 33%
    17:00 +29°C° 0 mm 2 mps 725 mmHg 34%
    18:00 +26°C° 0 mm 2 mps 725 mmHg 40%
    19:00 +23°C° 0 mm 1 mps 725 mmHg 47%
    20:00 +21°C° 0 mm 1 mps 725 mmHg 54%
    21:00 +20°C° 0 mm 1 mps 725 mmHg 56%
    22:00 +20°C° 0 mm 1 mps 725 mmHg 58%
    23:00 +19°C° 0 mm 1 mps 725 mmHg 60%

    Tomorrow, 16 September, Monday

    Time Temperature Precipitation Wind Pressure Humidity
    00:00 +18°C° 0 mm 1 mps 725 mmHg 63%
    01:00 +16°C° 0 mm 0 mps 725 mmHg 65%
    02:00 +15°C° 0 mm 0 mps 725 mmHg 68%
    03:00 +15°C° 0 mm 0 mps 724 mmHg 69%
    04:00 +15°C° 0 mm 0 mps 724 mmHg 70%
    05:00 +14°C° 0 mm 0 mps 724 mmHg 71%
    06:00 +16°C° 0 mm 0 mps 724 mmHg 65%
    07:00 +18°C° 0 mm 0 mps 724 mmHg 59%
    08:00 +21°C° 0 mm 1 mps 724 mmHg 53%
    09:00 +24°C° 0 mm 1 mps 724 mmHg 47%
    10:00 +26°C° 0 mm 1 mps 723 mmHg 40%
    11:00 +28°C° 0 mm 1 mps 723 mmHg 34%
    12:00 +29°C° 0 mm 2 mps 723 mmHg 31%
    13:00 +30°C° 0 mm 2 mps 722 mmHg 27%
    14:00 +31°C° 0 mm 2 mps 722 mmHg 24%
    15:00 +31°C° 0 mm 2 mps 722 mmHg 24%
    16:00 +31°C° 0 mm 2 mps 721 mmHg 24%
    17:00 +31°C° 0 mm 2 mps 721 mmHg 24%
    18:00 +28°C° 0 mm 2 mps 721 mmHg 29%
    19:00 +25°C° 0 mm 2 mps 721 mmHg 34%
    20:00 +22°C° 0 mm 1 mps 720 mmHg 39%
    21:00 +21°C° 0 mm 1 mps 721 mmHg 41%
    22:00 +21°C° 0 mm 1 mps 721 mmHg 43%
    23:00 +20°C° 0 mm 1 mps 721 mmHg 44%

    Day after tomorrow, 17 September, Tuesday

    Time Temperature Precipitation Wind Pressure Humidity
    00:00 +19°C° 0 mm 1 mps 721 mmHg 45%
    01:00 +19°C° 0 mm 1 mps 721 mmHg 46%
    02:00 +19°C° 0 mm 1 mps 721 mmHg 47%
    03:00 +18°C° 0 mm 1 mps 720 mmHg 48%
    04:00 +18°C° 0 mm 1 mps 720 mmHg 49%
    05:00 +18°C° 0 mm 1 mps 720 mmHg 49%
    06:00 +17°C° 0 mm 0 mps 720 mmHg 46%
    07:00 +19°C° 0 mm 0 mps 720 mmHg 43%
    08:00 +21°C° 0 mm 0 mps 721 mmHg 39%
    09:00 +23°C° 0 mm 0 mps 721 mmHg 34%
    10:00 +28°C° 0 mm 1 mps 721 mmHg 29%
    11:00 +30°C° 0 mm 1 mps 721 mmHg 24%
    12:00 +31°C° 0 mm 1 mps 720 mmHg 22%
    13:00 +32°C° 0 mm 1 mps 720 mmHg 19%
    14:00 +33°C° 0 mm 1 mps 720 mmHg 17%
    15:00 +32°C° 0 mm 2 mps 719 mmHg 18%
    16:00 +32°C° 0 mm 2 mps 719 mmHg 20%
    17:00 +31°C° 0 mm 2 mps 719 mmHg 21%
    18:00 +28°C° 0 mm 1 mps 719 mmHg 25%
    19:00 +26°C° 0 mm 1 mps 719 mmHg 29%
    20:00 +23°C° 0 mm 1 mps 719 mmHg 33%
    21:00 +22°C° 0 mm 1 mps 719 mmHg 35%
    22:00 +22°C° 0 mm 1 mps 719 mmHg 37%
    23:00 +21°C° 0 mm 1 mps 719 mmHg 39%

    18 September, Wednesday

    Time Temperature Precipitation Wind Pressure Humidity
    00:00 +21°C° 0 mm 1 mps 719 mmHg 41%
    01:00 +20°C° 0 mm 1 mps 719 mmHg 42%
    02:00 +20°C° 0 mm 1 mps 719 mmHg 43%
    03:00 +20°C° 0 mm 1 mps 719 mmHg 44%
    04:00 +19°C° 0 mm 1 mps 719 mmHg 45%
    05:00 +19°C° 0 mm 1 mps 719 mmHg 46%
    06:00 +19°C° 0 mm 0 mps 719 mmHg 44%
    07:00 +21°C° 0 mm 0 mps 720 mmHg 42%
    08:00 +22°C° 0 mm 0 mps 720 mmHg 39%
    09:00 +24°C° 0 mm 0 mps 720 mmHg 35%
    10:00 +29°C° 0 mm 1 mps 721 mmHg 31%
    11:00 +31°C° 0 mm 1 mps 721 mmHg 27%
    12:00 +31°C° 0 mm 2 mps 720 mmHg 26%
    13:00 +32°C° 0 mm 2 mps 720 mmHg 25%
    14:00 +32°C° 0 mm 2 mps 720 mmHg 24%
    15:00 +31°C° 0 mm 2 mps 720 mmHg 27%
    16:00 +30°C° 0 mm 3 mps 720 mmHg 30%
    17:00 +29°C° 0 mm 3 mps 719 mmHg 33%
    18:00 +27°C° 0 mm 3 mps 720 mmHg 40%
    19:00 +24°C° 0 mm 2 mps 720 mmHg 47%
    20:00 +21°C° 0 mm 2 mps 720 mmHg 54%
    21:00 +20°C° 0 mm 2 mps 720 mmHg 57%
    22:00 +19°C° 0 mm 2 mps 721 mmHg 60%
    23:00 +19°C° 0 mm 1 mps 721 mmHg 63%

    19 September, Thursday

    Time Temperature Precipitation Wind Pressure Humidity
    00:00 +18°C° 0 mm 1 mps 721 mmHg 64%
    01:00 +18°C° 0 mm 1 mps 721 mmHg 65%
    02:00 +16°C° 0 mm 1 mps 721 mmHg 66%
    03:00 +15°C° 0 mm 1 mps 722 mmHg 67%
    04:00 +15°C° 0 mm 1 mps 722 mmHg 67%
    05:00 +14°C° 0 mm 1 mps 722 mmHg 67%
    06:00 +16°C° 0 mm 1 mps 722 mmHg 63%
    07:00 +18°C° 0 mm 1 mps 722 mmHg 59%
    08:00 +19°C° 0 mm 1 mps 722 mmHg 54%
    09:00 +20°C° 0 mm 1 mps 722 mmHg 50%
    10:00 +21°C° 0 mm 2 mps 723 mmHg 45%
    11:00 +24°C° 0 mm 2 mps 723 mmHg 41%
    12:00 +25°C° 0 mm 2 mps 723 mmHg 40%
    13:00 +26°C° 0 mm 2 mps 722 mmHg 39%
    14:00 +27°C° 0 mm 2 mps 722 mmHg 38%
    15:00 +26°C° 0 mm 2 mps 722 mmHg 41%
    16:00 +25°C° 0 mm 2 mps 722 mmHg 43%
    17:00 +24°C° 0 mm 3 mps 722 mmHg 46%
    18:00 +21°C° 0 mm 3 mps 722 mmHg 54%
    19:00 +18°C° 0 mm 2 mps 722 mmHg 62%
    20:00 +16°C° 0 mm 2 mps 722 mmHg 70%
    21:00 +15°C° 0 mm 2 mps 723 mmHg 73%
    22:00 +15°C° 0 mm 2 mps 723 mmHg 77%
    23:00 +14°C° 0 mm 2 mps 723 mmHg 80%

    20 September, Friday

    Time Temperature Precipitation Wind Pressure Humidity
    00:00 +14°C° 0.5 mm 2 mps 723 mmHg 84%
    01:00 +13°C° 0.5 mm 2 mps 723 mmHg 88%
    02:00 +13°C° 0.5 mm 2 mps 723 mmHg 92%
    03:00 +13°C° 0.3 mm 2 mps 723 mmHg 92%
    04:00 +12°C° 0.3 mm 2 mps 723 mmHg 91%
    05:00 +12°C° 0.3 mm 2 mps 723 mmHg 90%
    06:00 +12°C° 0.1 mm 2 mps 723 mmHg 86%
    07:00 +12°C° 0.1 mm 2 mps 723 mmHg 82%
    08:00 +12°C° 0.1 mm 2 mps 723 mmHg 77%
    09:00 +13°C° 0 mm 3 mps 724 mmHg 65%
    10:00 +14°C° 0 mm 4 mps 724 mmHg 54%
    11:00 +17°C° 0 mm 4 mps 725 mmHg 42%
    12:00 +17°C° 0 mm 5 mps 724 mmHg 36%
    13:00 +19°C° 0 mm 5 mps 724 mmHg 31%
    14:00 +20°C° 0 mm 5 mps 724 mmHg 26%
    15:00 +19°C° 0 mm 5 mps 724 mmHg 26%
    16:00 +19°C° 0 mm 5 mps 724 mmHg 26%
    17:00 +17°C° 0 mm 5 mps 723 mmHg 26%
    18:00 +15°C° 0 mm 4 mps 724 mmHg 31%
    19:00 +13°C° 0 mm 3 mps 724 mmHg 36%
    20:00 +11°C° 0 mm 3 mps 725 mmHg 41%
    21:00 +10°C° 0 mm 2 mps 725 mmHg 44%
    22:00 +9°C° 0 mm 2 mps 726 mmHg 46%
    23:00 +8°C° 0 mm 2 mps 726 mmHg 49%
    Show more